This is the latest recevied weather packets stored in our database for station/object W3TMB. If no packets are shown the sender has not sent any weather packets the latest 10 day(s).
| Time | Temp. | Humidity | Pressure | Rain* | Wind** | Luminosity | Snow |
|---|---|---|---|---|---|---|---|
| 1778088070 | 15.56° C | 99% | 1003.8 hPa | 0 mm | - | 182 W/m² | - |
| 1778087768 | 15.56° C | 99% | 1004.1 hPa | 0 mm | - | 152 W/m² | - |
| 1778087465 | 15.56° C | 99% | 1004.1 hPa | 0 mm | - | 102 W/m² | - |
| 1778087162 | 16.11° C | 99% | 1004 hPa | 0 mm | - | 200 W/m² | - |
| 1778086860 | 16.67° C | 99% | 1004.1 hPa | 0 mm | - | 197 W/m² | - |
| 1778086558 | 16.11° C | 99% | 1004.2 hPa | 0 mm | - | 254 W/m² | - |
| 1778086254 | 15.56° C | 99% | 1004.1 hPa | 0 mm | - | 227 W/m² | - |
| 1778085951 | 15.56° C | 99% | 1004.2 hPa | 0 mm | - | 252 W/m² | - |
| 1778085648 | 15° C | 99% | 1004.1 hPa | 0 mm | - | 210 W/m² | - |
| 1778085344 | 15° C | 99% | 1004.3 hPa | 0 mm | - | 139 W/m² | - |
| 1778085040 | 15° C | 99% | 1004.3 hPa | 0 mm | - | 153 W/m² | - |
| 1778084736 | 15° C | 99% | 1004.4 hPa | 0 mm | - | 100 W/m² | - |
| 1778084434 | 15° C | 99% | 1004.4 hPa | 0 mm | - | 108 W/m² | - |
| 1778084131 | 14.44° C | 99% | 1004.2 hPa | 0 mm | - | 180 W/m² | - |
| 1778083828 | 14.44° C | 99% | 1004.1 hPa | 0 mm | - | 124 W/m² | - |
| 1778083526 | 14.44° C | 99% | 1004.5 hPa | 0 mm | - | 99 W/m² | - |
| 1778083222 | 15° C | 99% | 1004.4 hPa | 0 mm | - | 117 W/m² | - |
| 1778082921 | 15° C | 99% | 1004.1 hPa | 0 mm | - | 147 W/m² | - |
| 1778081812 | 15° C | 99% | 1004.3 hPa | 0 mm | - | 177 W/m² | - |
| 1778081509 | 14.44° C | 99% | 1004.2 hPa | 0 mm | - | 148 W/m² | - |
| 1778081206 | 15° C | 99% | 1004.2 hPa | 0 mm | - | 77 W/m² | - |
| 1778080904 | 14.44° C | 99% | 1004.3 hPa | 0 mm | - | 62 W/m² | - |
| 1778080603 | 14.44° C | 99% | 1004.3 hPa | 0 mm | - | 54 W/m² | - |
| 1778080299 | 14.44° C | 99% | 1004.1 hPa | 0 mm | - | 54 W/m² | - |
| 1778079996 | 14.44° C | 99% | 1004.1 hPa | 0 mm | - | 55 W/m² | - |
* Rain latest hour (hover to see other rain measurements)
** Current wind speed in m/s (hover to see current wind gust speed)